This demonstration page uses our WeatherBlox Daily Observations layout. Learn more.

Left ArrowRight Arrow

Hourly Observations for April 14, 2022

Temp ( °F °C ) Dew Point ( °F °C ) Humidity (%) Winds ( mph kmh ) Pressure ( in mb ) Visibility ( mi km ) Precip ( " mm )
12:15 am 00:15 Clear 32 -0.2 2 -16.5 28 28 NW 15 24 30.04 1017 10 16 0.00 0.00
12:35 am 00:35 Clear 32 -0.2 2 -16.6 28 28 NW 14 22 30.04 1017 10 16 0.00 0.00
12:55 am 00:55 Clear 31 -0.3 2 -16.6 28 28 NW 16 26 30.04 1017 10 16 0.00 0.00
1:15 am 01:15 Clear 31 -0.3 2 -16.6 28 28 NW 22 35 30.03 1017 10 16 0.00 0.00
1:35 am 01:35 Clear 31 -0.6 2 -16.5 29 29 NW 17 28 30.04 1017 10 16 0.00 0.00
1:55 am 01:55 Clear 31 -0.8 3 -16.3 30 30 NW 20 31 30.04 1017 10 16 0.00 0.00
2:15 am 02:15 Clear 30 -1 3 -16.2 31 31 NW 18 30 30.03 1017 10 16 0.00 0.00
2:35 am 02:35 Clear 29 -1.6 3 -16 33 33 WNW 15 24 30.04 1017 10 16 0.00 0.00
2:55 am 02:55 Clear 29 -1.8 4 -15.5 35 35 WNW 14 22 30.04 1017 10 16 0.00 0.00
3:15 am 03:15 Clear 28 -2 4 -15.6 35 35 WNW 14 22 30.04 1017 10 16 0.00 0.00
3:35 am 03:35 Clear 28 -2.5 4 -15.8 36 36 WNW 13 20 30.06 1018 10 16 0.00 0.00
3:55 am 03:55 Clear 27 -2.6 4 -15.7 36 36 WNW 12 19 30.07 1018 10 16 0.00 0.00
4:15 am 04:15 Clear 27 -3 4 -15.7 37 37 WNW 13 20 30.07 1018 10 16 0.00 0.00
4:35 am 04:35 Clear 25 -3.8 4 -15.5 40 40 W 10 17 30.09 1019 10 16 0.00 0.00
4:55 am 04:55 Clear 26 -3.6 4 -15.5 40 40 WNW 12 19 30.09 1019 10 16 0.00 0.00
5:15 am 05:15 Clear 25 -3.8 4 -15.5 40 40 WNW 14 22 30.09 1019 10 16 0.00 0.00
5:35 am 05:35 Clear 24 -4.3 4 -15.5 42 42 W 10 17 30.11 1020 10 16 0.00 0.00
5:55 am 05:55 Clear 25 -3.7 4 -15.5 40 40 W 10 17 30.11 1020 10 16 0.00 0.00
6:15 am 06:15 Clear 24 -4.4 4 -15.5 42 42 W 12 19 30.12 1020 10 16 0.00 0.00
6:35 am 06:35 Clear 24 -4.7 4 -15.3 44 44 WSW 10 17 30.12 1020 10 16 0.00 0.00
6:55 am 06:55 Clear 23 -5 5 -15.1 45 45 W 10 17 30.12 1020 10 16 0.00 0.00
7:15 am 07:15 Sunny 22 -5.5 5 -15 48 48 W 12 19 30.13 1020 10 16 0.00 0.00
7:35 am 07:35 Sunny 23 -5.2 5 -15 46 46 W 10 17 30.14 1021 10 16 0.00 0.00
7:55 am 07:55 Sunny 24 -4.6 5 -14.8 45 45 W 10 17 30.13 1020 10 16 0.00 0.00
8:15 am 08:15 Sunny 26 -3.4 5 -15 41 41 W 13 20 30.13 1020 10 16 0.00 0.00
8:35 am 08:35 Sunny 27 -2.6 6 -14.6 40 40 W 13 20 30.13 1020 10 16 0.00 0.00
8:55 am 08:55 Sunny 29 -1.9 6 -14.5 38 38 W 13 20 30.12 1020 10 16 0.00 0.00
9:15 am 09:15 Sunny 31 -0.6 6 -14.2 35 35 WNW 13 20 30.11 1020 10 16 0.00 0.00
9:35 am 09:35 Sunny 34 1 5 -14.8 30 30 WNW 21 33 30.10 1019 10 16 0.00 0.00
9:55 am 09:55 Sunny 35 1.8 5 -14.8 28 28 WNW 15 24 30.09 1019 10 16 0.00 0.00
10:15 am 10:15 Sunny 36 2.4 6 -14.3 28 28 WNW 17 28 30.09 1019 10 16 0.00 0.00
10:35 am 10:35 Sunny 37 2.7 7 -14 28 28 WNW 16 26 30.07 1018 10 16 0.00 0.00
10:55 am 10:55 Sunny 38 3.6 7 -13.9 27 27 W 16 26 30.06 1018 10 16 0.00 0.00
11:15 am 11:15 Sunny 40 4.3 7 -13.8 26 26 WNW 14 22 30.04 1017 10 16 0.00 0.00
11:35 am 11:35 Sunny 42 5.5 8 -13.5 24 24 W 15 24 30.02 1017 10 16 0.00 0.00
11:55 am 11:55 Sunny 42 5.6 8 -13.4 24 24 W 14 22 30.01 1016 10 16 0.00 0.00
12:15 pm 12:15 Sunny 44 6.4 9 -13 24 24 W 13 20 30.01 1016 10 16 0.00 0.00
12:35 pm 12:35 Sunny 44 6.7 9 -12.8 24 24 W 15 24 30.00 1016 10 16 0.00 0.00
12:55 pm 12:55 Sunny 45 7.4 9 -12.6 23 23 W 12 19 29.99 1015 10 16 0.00 0.00
1:15 pm 13:15 Sunny 48 8.9 10 -12.3 21 21 WSW 20 31 29.97 1015 10 16 0.00 0.00
1:35 pm 13:35 Sunny 49 9.7 10 -12.4 20 20 W 18 30 29.96 1014 10 16 0.00 0.00
1:55 pm 13:55 Sunny 51 10.3 10 -12.5 19 19 WSW 21 33 29.94 1014 10 16 0.00 0.00
2:15 pm 14:15 Sunny 51 10.8 10 -12.4 18 18 WSW 15 24 29.92 1013 10 16 0.00 0.00
2:35 pm 14:35 Sunny 53 11.4 10 -12.5 18 18 W 16 26 29.90 1013 10 16 0.00 0.00
2:55 pm 14:55 Sunny 55 12.6 10 -12.4 16 16 W 22 35 29.88 1012 10 16 0.00 0.00
3:15 pm 15:15 Sunny 55 12.7 9 -12.8 16 16 W 15 24 29.88 1012 10 16 0.00 0.00
3:35 pm 15:35 Sunny 56 13.3 5 -14.8 13 13 W 23 37 29.86 1011 10 16 0.00 0.00
3:55 pm 15:55 Sunny 56 13.3 6 -14.6 13 13 W 15 24 29.86 1011 10 16 0.00 0.00
4:15 pm 16:15 Sunny 56 13.6 6 -14.4 13 13 W 23 37 29.86 1011 10 16 0.00 0.00
4:35 pm 16:35 Partly Cloudy 57 13.8 7 -14 13 13 NW 20 31 29.84 1010 10 16 0.00 0.00
4:55 pm 16:55 Sunny 57 14.1 8 -13.5 14 14 WNW 18 30 29.83 1010 10 16 0.00 0.00
5:15 pm 17:15 Sunny 57 14.1 8 -13.5 14 14 WNW 17 28 29.83 1010 10 16 0.00 0.00
5:35 pm 17:35 Sunny 57 14 8 -13.2 14 14 NW 21 33 29.82 1010 10 16 0.00 0.00
5:55 pm 17:55 Sunny 57 13.8 9 -12.9 14 14 NNW 14 22 29.83 1010 10 16 0.00 0.00
6:15 pm 18:15 Sunny 57 13.9 10 -12.4 15 15 NW 12 19 29.83 1010 10 16 0.00 0.00
6:35 pm 18:35 Sunny 56 13.4 10 -12.3 16 16 NNW 10 17 29.83 1010 10 16 0.00 0.00
6:55 pm 18:55 Sunny 56 13.4 11 -11.9 16 16 NNW 13 20 29.83 1010 10 16 0.00 0.00
7:15 pm 19:15 Sunny 55 12.6 11 -11.5 18 18 NNW 16 26 29.84 1010 10 16 0.00 0.00
7:35 pm 19:35 Sunny 53 11.5 11 -11.4 19 19 N 12 19 29.85 1011 10 16 0.00 0.00
7:55 pm 19:55 Sunny 51 10.7 13 -10.8 21 21 NNW 8 13 29.86 1011 10 16 0.00 0.00
8:15 pm 20:15 Sunny 50 9.9 9 -12.6 19 19 NE 5 7 29.86 1011 10 16 0.00 0.00
8:35 pm 20:35 Clear 47 8.3 9 -13 21 21 ENE 5 7 29.88 1012 10 16 0.00 0.00
8:55 pm 20:55 Partly Cloudy 47 8.4 9 -12.6 21 21 NE 6 9 29.87 1011 10 16 0.00 0.00
9:15 pm 21:15 Clear 44 6.5 9 -13 24 24 ENE 6 9 29.88 1012 10 16 0.00 0.00
9:35 pm 21:35 Clear 41 5 7 -13.9 24 24 ENE 7 11 29.91 1013 10 16 0.00 0.00
9:55 pm 21:55 Clear 41 5.2 8 -13.1 26 26 E 7 11 29.92 1013 10 16 0.00 0.00
10:15 pm 22:15 Clear 42 5.8 9 -12.8 25 25 ENE 8 13 29.93 1014 10 16 0.00 0.00
10:35 pm 22:35 Clear 39 3.8 8 -13.1 28 28 NE 9 15 29.95 1014 10 16 0.00 0.00
10:55 pm 22:55 Clear 39 4.1 9 -13 28 28 NE 8 13 29.95 1014 10 16 0.00 0.00
11:15 pm 23:15 Clear 39 4 9 -12.9 28 28 ENE 8 13 29.96 1014 10 16 0.00 0.00
11:35 pm 23:35 Clear 40 4.7 9 -12.6 28 28 NE 9 15 29.95 1014 10 16 0.00 0.00
11:55 pm 23:55 Clear 39 3.7 8 -13.2 28 28 NE 9 15 29.96 1015 10 16 0.00 0.00

Powered by AerisWeather